• MPC Preparation (Info)

  • MPEC 2014-J46 : 2014 JE15

    The following Minor Planet Electronic Circular may be linked-to from your own Web pages, but must not otherwise be redistributed electronically.

    A form allowing access to any MPEC is at the bottom of this page.


    Read MPEC 2014-J45 Read MPEC 2014-J47


    M.P.E.C. 2014-J46                                Issued 2014 May 5, 14:18 UT
    
         The Minor Planet Electronic Circulars contain information on unusual
             minor planets and routine data on comets.  They are published
       on behalf of Commission 20 of the International Astronomical Union by the
              Minor Planet Center, Smithsonian Astrophysical Observatory,
                              Cambridge, MA 02138, U.S.A.
    
                 Prepared using the Tamkin Foundation Computer Network
    
                                  MPC@CFA.HARVARD.EDU
                URL https://www.minorplanetcenter.net/    ISSN 1523-6714
    
                                       2014 JE15
    
    Observations:
         K14J15E 5C2014 04 28.19193 14 31 21.25 -23 38 10.8          23.0 VoEJ046W84
         K14J15E 5C2014 04 28.19523 14 31 21.76 -23 38 16.5                oEJ046W84
         K14J15E 5C2014 04 28.19864 14 31 22.27 -23 38 22.4                oEJ046W84
         K14J15E 5C2014 04 28.20191 14 31 22.78 -23 38 28.1                oEJ046W84
         K14J15E 5C2014 04 28.20529 14 31 23.29 -23 38 33.9                oEJ046W84
         K14J15E*5C2014 05 02.27736 14 44 33.09 -25 42 32.2          22.4 VoEJ046W84
         K14J15E 5C2014 05 02.28058 14 44 33.71 -25 42 38.2                oEJ046W84
         K14J15E 5C2014 05 02.28372 14 44 34.32 -25 42 44.1                oEJ046W84
         K14J15E 5C2014 05 02.28688 14 44 34.95 -25 42 49.9                oEJ046W84
         K14J15E |C2014 05 04.14459 14 51 40.26 -26 43 27.5          21.7 VuEJ046807
         K14J15E |C2014 05 04.15090 14 51 41.58 -26 43 40.9          22.0 VuEJ046807
         K14J15E |C2014 05 04.15854 14 51 43.21 -26 43 57.0          21.8 VuEJ046807
         K14J15E  C2014 05 04.30034014 52 16.22 -26 49 36.4          21.8 RtEJ046H01
         K14J15E  C2014 05 04.30974314 52 18.27 -26 49 55.5          22.3 RtEJ046H01
         K14J15E  C2014 05 04.31980414 52 20.46 -26 50 15.2          21.1 RtEJ046H01
         K14J15E  C2014 05 04.32925514 52 22.52 -26 50 34.1          21.8 RtEJ046H01
         K14J15E KC2014 05 05.40292514 56 47.18 -27 26 41.3          22.0 RtEJ046H01
         K14J15E KC2014 05 05.41299814 56 49.58 -27 27 00.9          21.4 RtEJ046H01
         K14J15E KC2014 05 05.42096614 56 51.45 -27 27 16.8          21.5 RtEJ046H01
    
    Observer details:
    807 Cerro Tololo.  Observers T. Linder, R. Holmes.  0.41-m f/11
        Ritchey-Chretien + CCD.
    H01 Magdalena Ridge Observatory, Socorro.  Observers W. H. Ryan, E. V. Ryan.
        Measurer W. H. Ryan.  2.4-m f/8.9 reflector + CCD.
    W84 Cerro Tololo-DECam.  Observers L. Allen, D. Trilling, D. James,
        J. Ragagopal.  Measurer F. Valdes.  4.0-m CTIO reflector.
    
    Orbital elements:
    2014 JE15                                                Earth MOID = 0.0999 AU
    Epoch 2014 May 23.0 TT = JDT 2456800.5                  MPC
    M 357.91190              (2000.0)            P               Q
    n   0.27954259     Peri.  273.22875     -0.33050188     +0.94376169
    a   2.3165272      Node   337.46549     -0.85624744     -0.30387196
    e   0.5204634      Incl.    1.35701     -0.39699978     -0.13029082
    P   3.53           H   25.3           G   0.15           U   7
    Residuals in seconds of arc
    140428 W84  0.1+  0.1-    140502 W84  0.1-  0.1-    140504 H01  0.1-  0.1+
    140428 W84  0.1+  0.0     140502 W84  0.1+  0.0     140504 H01  0.1-  0.1-
    140428 W84  0.1-  0.0     140504 807  0.5+  0.8+    140505 H01  0.1-  0.2-
    140428 W84  0.0   0.0     140504 807  0.1-  0.3+    140505 H01  0.2+  0.1-
    140428 W84  0.1-  0.0     140504 807  0.3-  0.2-    140505 H01  0.1-  0.6-
    140502 W84  0.1+  0.1+    140504 H01  0.3-  0.1+
    140502 W84  0.0   0.0     140504 H01  0.2-  0.2-
    
    Ephemeris:
    2014 JE15                a,e,i = 2.32, 0.52, 1                   q = 1.1109
    Date    TT    R. A. (2000) Decl.     Delta      r     Elong.  Phase     V
    2014 04 05    13 49 31.1 -15 29 42   0.2893  1.2804   163.5    12.8    23.9
    ...
    2014 04 20    14 11 47.0 -20 07 08   0.2043  1.2061   169.8     8.5    22.8
    ...
    2014 04 28    14 30 47.6 -23 32 43   0.1691  1.1737   170.1     8.5    22.4
    ...
    2014 05 04    14 51 04.3 -26 38 44   0.1474  1.1532   169.0     9.6    22.1
    2014 05 05    14 55 07.6 -27 12 11   0.1441  1.1502   168.8     9.8    22.0
    2014 05 06    14 59 24.1 -27 46 14   0.1410  1.1472   168.5    10.1    22.0
    ...
    2014 05 12    15 30 17.0 -31 17 56   0.1249  1.1318   166.2    12.3    21.8
    ...
    2014 05 20    16 27 02.6 -35 36 08   0.1108  1.1177   161.9    16.4    21.6
    ...
    2014 06 04    18 37 16.6 -37 01 07   0.1093  1.1121   152.1    25.3    21.9
    
    A. U. Tomatic                (C) Copyright 2014 MPC           M.P.E.C. 2014-J46
    

    Read MPEC 2014-J45 Read MPEC 2014-J47


    MPEC number:

    Enter an MPEC number in one of the following forms:

    • 1997-B01 (the full form)
    • J97B01 (the packed version of the full form)
    • B01 (the abbreviated form)